Time,TemperatureF,DewpointF,PressureIn,WindDirection,WindDirectionDegrees,WindSpeedMPH,WindSpeedGustMPH,Humidity,HourlyPrecipIn,Conditions,Clouds,dailyrainin,SoftwareType,DateUTC
2013-11-06 00:00:00,45.6,6.9,30.17,West,275,3.0,5.0,20,0.00,,---,0.00,VWS V13.01,2013-11-06 08:00:00,
2013-11-06 00:30:00,45.2,7.6,30.16,West,260,1.0,5.0,21,0.00,,---,0.00,VWS V13.01,2013-11-06 08:30:00,
2013-11-06 01:00:00,40.9,6.0,30.16,West,260,0.0,3.0,23,0.00,,---,0.00,VWS V13.01,2013-11-06 09:00:00,
2013-11-06 01:30:00,35.2,2.0,30.17,North,0,0.0,4.0,24,0.00,,---,0.00,VWS V13.01,2013-11-06 09:30:00,
2013-11-06 02:00:00,32.3,0.4,30.18,North,0,0.0,4.0,25,0.00,,---,0.00,VWS V13.01,2013-11-06 10:00:00,
2013-11-06 02:30:00,33.0,3.5,30.18,North,0,1.0,3.0,28,0.00,,---,0.00,VWS V13.01,2013-11-06 10:30:00,
2013-11-06 03:00:00,33.7,7.0,30.17,North,0,0.0,3.0,32,0.00,,---,0.00,VWS V13.01,2013-11-06 11:00:00,
2013-11-06 03:30:00,34.3,6.1,30.17,North,0,0.0,0.0,30,0.00,,---,0.00,VWS V13.01,2013-11-06 11:30:00,
2013-11-06 04:00:00,34.5,7.7,30.17,North,0,0.0,0.0,32,0.00,,---,0.00,VWS V13.01,2013-11-06 12:00:00,
2013-11-06 04:30:00,34.3,8.2,30.18,North,0,0.0,0.0,33,0.00,,---,0.00,VWS V13.01,2013-11-06 12:30:00,
2013-11-06 05:00:00,33.9,7.8,30.19,North,0,0.0,0.0,33,0.00,,---,0.00,VWS V13.01,2013-11-06 13:00:00,
2013-11-06 05:30:00,32.7,9.3,30.19,North,0,0.0,0.0,37,0.00,,---,0.00,VWS V13.01,2013-11-06 13:30:00,
2013-11-06 06:00:00,33.6,6.2,30.21,North,0,0.0,3.0,31,0.00,,---,0.00,VWS V13.01,2013-11-06 14:00:00,
2013-11-06 06:30:00,30.6,0.6,30.20,North,0,1.0,4.0,27,0.00,,---,0.00,VWS V13.01,2013-11-06 14:30:00,
2013-11-06 07:30:00,36.7,5.9,30.23,North,0,1.0,4.0,27,0.00,,---,0.00,VWS V13.01,2013-11-06 15:30:00,
2013-11-06 08:00:00,42.0,7.8,30.24,North,0,0.0,3.0,24,0.00,,---,0.00,VWS V13.01,2013-11-06 16:00:00,
2013-11-06 08:30:00,44.7,8.2,30.25,North,0,0.0,3.0,22,0.00,,---,0.00,VWS V13.01,2013-11-06 16:30:00,
2013-11-06 09:00:00,48.2,9.0,30.25,North,0,0.0,3.0,20,0.00,,---,0.00,VWS V13.01,2013-11-06 17:00:00,
2013-11-06 09:30:00,52.6,11.5,30.24,North,0,1.0,3.0,19,0.00,,---,0.00,VWS V13.01,2013-11-06 17:30:00,
2013-11-06 10:00:00,56.9,12.6,30.25,North,4,2.0,4.0,17,0.00,,---,0.00,VWS V13.01,2013-11-06 18:00:00,
2013-11-06 10:30:00,60.5,12.6,30.22,North,1,3.0,6.0,15,0.00,,---,0.00,VWS V13.01,2013-11-06 18:30:00,
2013-11-06 11:00:00,62.8,14.5,30.23,NNE,14,7.0,9.0,15,0.00,,---,0.00,VWS V13.01,2013-11-06 19:00:00,
2013-11-06 11:30:00,63.9,12.1,30.21,NW,310,0.0,14.0,13,0.00,,---,0.00,VWS V13.01,2013-11-06 19:30:00,
2013-11-06 12:00:00,65.5,13.4,30.21,East,85,0.0,0.0,13,0.00,,---,0.00,VWS V13.01,2013-11-06 20:00:00,
2013-11-06 12:30:00,66.2,13.9,30.18,North,11,0.0,0.0,13,0.00,,---,0.00,VWS V13.01,2013-11-06 20:30:00,
2013-11-06 13:00:00,66.5,14.2,30.17,North,5,0.0,0.0,13,0.00,,---,0.00,VWS V13.01,2013-11-06 21:00:00,
2013-11-06 13:30:00,67.0,14.6,30.16,North,9,0.0,0.0,13,0.00,,---,0.00,VWS V13.01,2013-11-06 21:30:00,
2013-11-06 14:00:00,67.1,14.6,30.16,North,356,0.0,0.0,13,0.00,,---,0.00,VWS V13.01,2013-11-06 22:00:00,
2013-11-06 14:30:00,67.4,14.9,30.14,NW,313,0.0,0.0,13,0.00,,---,0.00,VWS V13.01,2013-11-06 22:30:00,
2013-11-06 15:00:00,67.7,15.1,30.14,WNW,299,0.0,0.0,13,0.00,,---,0.00,VWS V13.01,2013-11-06 23:00:00,
2013-11-06 15:30:00,67.7,15.1,30.14,North,358,0.0,0.0,13,0.00,,---,0.00,VWS V13.01,2013-11-06 23:30:00,
2013-11-06 16:00:00,67.7,15.1,30.14,WNW,289,0.0,0.0,13,0.00,,---,0.00,VWS V13.01,2013-11-07 00:00:00,
2013-11-06 16:30:00,67.5,15.0,30.15,WNW,284,0.0,0.0,13,0.00,,---,0.00,VWS V13.01,2013-11-07 00:30:00,
2013-11-06 17:00:00,65.5,15.1,30.14,WNW,284,1.0,5.0,14,0.00,,---,0.00,VWS V13.01,2013-11-07 01:00:00,
2013-11-06 17:30:00,62.8,14.5,30.14,WNW,283,2.0,4.0,15,0.00,,---,0.00,VWS V13.01,2013-11-07 01:30:00,
2013-11-06 18:00:00,61.4,13.4,30.15,West,279,1.0,4.0,15,0.00,,---,0.00,VWS V13.01,2013-11-07 02:00:00,
2013-11-06 18:30:00,59.2,14.4,30.15,West,279,0.0,1.0,17,0.00,,---,0.00,VWS V13.01,2013-11-07 02:30:00,
2013-11-06 19:00:00,57.6,13.1,30.15,WNW,302,0.0,3.0,17,0.00,,---,0.00,VWS V13.01,2013-11-07 03:00:00,
2013-11-06 19:30:00,57.5,13.1,30.17,WNW,286,0.0,5.0,17,0.00,,---,0.00,VWS V13.01,2013-11-07 03:30:00,
2013-11-06 20:00:00,52.4,10.1,30.16,WNW,286,1.0,2.0,18,0.00,,---,0.00,VWS V13.01,2013-11-07 04:00:00,
2013-11-06 20:30:00,50.5,8.6,30.16,WSW,237,0.0,3.0,18,0.00,,---,0.00,VWS V13.01,2013-11-07 04:30:00,
2013-11-06 21:00:00,48.4,11.3,30.18,WSW,255,0.0,3.0,22,0.00,,---,0.00,VWS V13.01,2013-11-07 05:00:00,
2013-11-06 21:30:00,49.4,11.1,30.17,West,276,1.0,3.0,21,0.00,,---,0.00,VWS V13.01,2013-11-07 05:30:00,
2013-11-06 22:00:00,51.7,10.8,30.17,West,272,0.0,3.0,19,0.00,,---,0.00,VWS V13.01,2013-11-07 06:00:00,
2013-11-06 22:30:00,50.9,12.4,30.16,NW,311,0.0,4.0,21,0.00,,---,0.00,VWS V13.01,2013-11-07 06:30:00,
2013-11-06 23:00:00,50.2,9.6,30.14,NW,311,2.0,4.0,19,0.00,,---,0.00,VWS V13.01,2013-11-07 07:00:00,
2013-11-06 23:30:00,46.8,8.9,30.16,WSW,238,0.0,3.0,21,0.00,,---,0.00,VWS V13.01,2013-11-07 07:30:00,